Find Starlink 30524

NORAD ID: 57965 Int'l Des: 2023-151 Owner: SPXS Country: US Constellation: starlink operational
LEOCIRCULAR

Live-Position

3D-Globus wird geladen...

Über Starlink 30524

Beschreibung wird geladen...

Nächste Überflüge

Passes for default location (London). Set your location on the main map for personalized predictions.

Höhenverlauf

Loading altitude history...

Zweizeiliger Elementsatz

1 57965U 23151B 26133.94388528 .00001165 00000-0 51857-4 0 9999
2 57965 42.9970 327.7048 0001246 230.6050 129.4691 15.27578008145741
Epoch: 13. Mai 2026 • Age: 16 hours

Aktueller Status

Höhe 483.5 km
Geschwindigkeit 7.63 km/s
Subsatellitenpunkt 23.43°N, 98.36°W
Startdatum 30. Sept. 2023
Alter 2.6 years
Typ internet

Technische Details

Klassifizierung Payload
Masse 730.00 kg
Trockenmasse 700.00 kg
Gesamtmasse 730.00 kg
Länge 0.30 m
Durchmesser 4.10 m
Spannweite 29.00 m
Form Box + pan
Hersteller SPXS
Bus-Typ Starlink V2M
Phasenstatus In Orbit
Besitzer/Staat SPXS/US

Most Searched